Weather in Novyi Svit

Ukraine / Donetsk Region     47°48′23″N   38°01′16″E
temp.,
°C
wind,
m/s
gust,
m/s
humid.,
%
clouds,
%
prec.,
mm/h
press.,
hPa
HPBL,
m
18 april, sun
sun1800:00+8ssw227850 0.0 102136
03:00+7s117698 0.0 102010
06:00+6se2277100 0.0 102019
09:00+10se2362100 0.0 1020418
12:00+13se435069 0.0 10181672
15:00+14se224216 0.0 10181818
18:00+14s335099 0.0 1017309
21:00+9ssw3575100 0.0 101894
19 april, mon
mon1900:00+9ssw1177100 0.0 101821
03:00+8nw117894 0.0 101710
06:00+8nw0176100 0.0 101711
09:00+12se226290 0.0 1017452
12:00+15ese225081 0.0 10151553
15:00+14sse3356100 0.1 1014900
18:00+14sse3364100 0.0 1014617
21:00+11se3577100 0.0 1014178
20 april, tue
tue2000:00+11e3682100 0.0 1012277
03:00+10ene4985100 0.1 1010415
06:00+10e61194100 1.3 1006474
09:00+11e61397100 6.7 1003437
12:00+12se51195100 11.3 1001948
15:00+12ssw589690 13.1 1000391
18:00+12s8138955 0.1 1001795
21:00+9s81392100 0.3 1003853
21 april, wed
wed2100:00+8s91491100 0.1 1003941
03:00+9sw81390100 0.3 1006893
06:00+9wsw71287100 0.4 1011748
09:00+9sw6984100 0.4 1015816
12:00+13wsw695699 0.1 10151811
15:00+15wsw784248 0.1 10162268
18:00+13wnw68555 0.0 1018875
21:00+9wsw226997 0.0 102122
22 april, thu
thu2200:00+8wsw11768 0.0 102210
03:00+7s22815 0.0 102210
06:00+7s117965 0.0 102310
09:00+12s226098 0.0 1024435
12:00+15sse3353100 0.4 10241376
15:00+15s225499 2.1 10241243
18:00+14ssw2264100 2.1 1024194
21:00+11s227682 2.4 102413